Location: Newark
(47.4417°N, 1.1394°W)
Time: 04:53:50
(UTC+00:00)

Envisat - Pass Details

Date: 25 November 2019
Orbit: 764 x 766 km, 98.1° (Epoch: 12 December)

Event Time Altitude Azimuth Distance (km) Brightness Sun altitude
Rises 16:54:25 0° 133° (SE) 3,224 6.0 -6.1°
Reaches altitude 10° 16:56:58 10° 123° (ESE) 2,301 5.2 -6.4°
Maximum altitude 17:01:17 29° 64° (ENE) 1,380 3.8 -7.1°
Drops below altitude 10° 17:05:37 10° 6° (N) 2,314 5.2 -7.8°
Sets 17:08:11 0° 355° (N) 3,244 6.1 -8.2°
